Other Surface Observations
Issued by NWS

Home | Current Version | Previous Version | Text Only | Print | Product List | Glossary On
Versions: 1 2 3 4 5 6 7 8 9 10 11 12 13 14 15 16 17 18 19 20 21 22 23 24 25 26 27 28 29 30 31 32 33 34 35 36 37 38 39 40 41 42 43 44 45 46 47 48 49 50
000
SXUS52 KTAE 202205
OSOTAE
OSOTAE
North Florida/South Alabama/Southwest Georgia Weather Roundup
National Weather Service Tallahassee Florida
600 PM EDT MON OCT 20 2014

Note: "fair" indicates few or no clouds below 12,000 feet with no
significant weather and/or obstructions to visibility.

!FLZ017-115-028-034-025-202300
...North Florida...

CITY           SKY/WX    TMP DP  RH WIND       PRES   REMARKS
TALLAHASSEE    MOSUNNY   81  59  47 S5        29.95F
APALACHICOLA   PTSUNNY   79  70  74 SE7       29.95F
PERRY          SUNNY     77  63  61 SW8       29.97S
CROSS CITY       N/A     79  63  57 SW6       29.95F
JACKSONVILLE   MOCLDY    78  66  66 SE9       29.96F
$$

!FLZ112-006-005-002-011-202300
...Florida Panhandle...

CITY           SKY/WX    TMP DP  RH WIND       PRES   REMARKS
MARIANNA       MOSUNNY   80  62  54 N6        29.95F
BONIFAY        NOT AVBL
PANAMA CITY NW FAIR      77  57  50 S6        29.95F
TYNDALL AFB    SUNNY     76  63  64 W9        29.97S
TYND DRONE APT FAIR      75  66  74 MISG      29.95S
DE FUNIAK SPR  FAIR      76  56  48 N6        29.97S
EGLIN AFB      PTSUNNY   76  62  61 SW6       29.97S
DESTIN         MOSUNNY   76  63  64 SW5       29.97S
HURLBURT       SUNNY     75  58  54 SW7       29.96F
CRESTVIEW      MOSUNNY   79  53  40 NW7       29.98F
PENSACOLA      SUNNY     75  58  55 S7        29.97F
$$

!ALZ063-066-202300
...South Alabama...

CITY           SKY/WX    TMP DP  RH WIND       PRES   REMARKS
DOTHAN         MOSUNNY   75  54  47 W5        30.01F
OZARK CAIRNS   MOSUNNY   75  54  47 W6        29.97F
FT RUCKER HELI MOSUNNY   76  52  43 CALM      29.96F
RUCKER HELI 3  FAIR      75  53  45 VRB2      30.00F
RUCKER HELI 2  FAIR      76  54  46 W3        29.97F
FLORALA APT    MOSUNNY   77  51  40 VRB3      29.99F
ANDALUSIA      MOSUNNY   80  51  36 N6        29.98F
TROY           SUNNY     75  48  38 W5        29.99F
EUFALA         FAIR      75  58  55 CALM      29.98S
MOBILE         MOSUNNY   76  46  34 NW7       29.99F
$$

!GAZ120>161-202300
...Southwest and South Central Georgia...

CITY           SKY/WX    TMP DP  RH WIND       PRES   REMARKS
THOMASVILLE    FAIR      77  64  65 CALM      29.97F
BAINBRIDGE     MOSUNNY   81  63  54 SW5       29.96F
MOODY AFB      MOSUNNY   80  59  49 W5        29.97F
VALDOSTA       MOSUNNY   77  61  57 CALM      29.96F
MOULTRIE       MOSUNNY   79  61  53 CALM      29.97F
BLAKELY        PTSUNNY   77  59  53 CALM        N/A
ALBANY         PTSUNNY   75  60  59 NW5       29.99F
TIFTON         FAIR      76  57  50 CALM      29.96F
FITZGERALD     FAIR      77  55  46 W3        29.99S
CORDELE        FAIR      76  58  53 W3        29.99S
AMERICUS       FAIR      72  55  56 SW3       30.00S
HOMERVILLE     FAIR      81  63  54 S3        29.97S
$$

!GMZ750-755-770-775-202300
...Coastal and Buoy Obs...

STATION/POSITION TIME  TEMP    WIND        PRES    VSBY  WAVE
                       AIR SEA DIR/SP/G                  HT/PER
                 (UTC) (F)     (DEG/KT/KT) (MB)    (MI)  (FT/S)
KEATON BEACH     2200   74     240/  4/  4 1014.8F
CEDAR KEY        2054   77     270/  4/  6 1015.2F
C TOWER          2200   77     190/  1/  2 1014.1F
APALACHICOLA BUO 2100   79 82  160/  6/  8 1014.5F         2/ 4
PANAMA CITY BUOY NOT AVBL
MOBILE BUOY      2142   75 80   50/  6/  8 1015.5F         1/ 4
ORANGE BCH AL BU 2100   75 79   CALM  /  2 1015.2F         1/ 4
$$



USA.gov is the U.S. government's official web portal to all federal, state and local government web resources and services.